Date,TemperatureHighF,TemperatureAvgF,TemperatureLowF,DewpointHighF,DewpointAvgF,DewpointLowF,HumidityHigh,HumidityAvg,HumidityLow,PressureMaxIn,PressureMinIn,WindSpeedMaxMPH,WindSpeedAvgMPH,GustSpeedMaxMPH,PrecipitationSumIn
2013-1-1,36,19,9,20,13,6,91,80,51,0.00,40.00,7,3,11,0.00
2013-1-2,36,17,5,20,10,1,91,76,52,0.00,40.00,10,7,16,0.00
2013-1-3,31,17,6,17,11,3,93,78,55,0.00,40.00,10,5,16,0.00
2013-1-4,34,20,9,20,14,5,94,80,53,0.00,40.00,8,4,10,0.00
2013-1-5,29,22,16,26,20,13,97,88,74,0.00,40.00,5,3,8,0.00
2013-1-6,32,27,26,29,26,25,99,96,90,0.00,40.00,7,3,11,0.10
2013-1-7,40,32,26,36,31,25,99,96,81,0.00,40.00,7,4,11,0.04
2013-1-8,46,36,30,34,32,29,99,85,62,0.00,40.00,9,4,14,0.04
2013-1-9,39,31,22,32,26,16,99,84,71,0.00,40.00,16,7,30,0.02
2013-1-10,31,23,18,22,17,14,94,80,58,0.00,40.00,14,5,22,0.01
2013-1-11,30,21,9,18,12,3,92,68,33,0.00,40.00,15,6,22,0.02
2013-1-12,20,7,-3,7,1,-8,85,76,54,0.00,40.00,6,4,9,0.01
2013-1-13,29,8,-6,7,-2,-12,81,65,38,0.00,40.00,7,4,10,0.00
2013-1-14,27,12,-1,8,2,-6,79,65,41,0.00,40.00,8,4,12,0.00
2013-1-15,35,19,5,14,8,1,82,63,38,0.00,40.00,8,4,10,0.00
2013-1-16,39,22,7,17,12,4,88,67,39,0.00,40.00,7,4,11,0.00
2013-1-17,40,25,12,20,14,9,87,66,42,0.00,40.00,7,5,11,0.00
2013-1-18,44,26,11,20,14,8,87,63,38,0.00,40.00,8,4,13,0.00
2013-1-19,46,27,11,20,13,8,86,59,33,0.00,40.00,9,5,15,0.00
2013-1-20,46,25,11,18,10,5,79,57,31,0.00,40.00,10,6,15,0.00
2013-1-21,44,25,11,19,10,5,77,54,32,0.00,40.00,9,5,13,0.00
2013-1-22,41,27,15,18,13,8,75,56,39,0.00,40.00,6,4,10,0.00
2013-1-23,46,38,30,35,25,14,99,62,38,0.00,40.00,13,6,31,0.23
2013-1-24,45,37,34,38,36,34,100,95,74,0.00,40.00,6,3,11,0.14
2013-1-25,40,36,34,39,36,34,100,99,94,0.00,40.00,8,4,14,0.29
2013-1-26,40,33,25,37,26,19,99,76,52,0.00,40.00,14,7,22,0.06
2013-1-27,37,28,19,24,21,17,94,76,52,0.00,40.00,9,5,16,0.01
2013-1-28,35,31,26,26,23,21,93,74,62,0.00,40.00,12,7,24,0.01
2013-1-29,41,34,31,29,26,23,91,72,58,0.00,40.00,18,7,24,0.00
2013-1-30,47,35,26,30,27,25,97,77,50,0.00,40.00,5,3,10,0.00
2013-1-31,47,33,21,31,26,20,96,78,54,0.00,40.00,5,3,7,0.00
2013-2-1,48,33,20,30,24,19,95,73,46,0.00,40.00,6,4,8,0.01
2013-2-2,46,32,24,29,24,21,88,75,51,0.00,40.00,8,4,13,0.01
2013-2-3,48,33,21,27,24,20,95,72,44,0.00,40.00,6,4,11,0.00
2013-2-4,48,36,27,29,26,23,87,68,47,0.00,40.00,6,3,9,0.00
2013-2-5,43,35,30,32,27,24,89,72,47,0.00,40.00,12,5,21,0.00
2013-2-6,44,34,28,27,26,23,92,73,43,0.00,40.00,8,4,15,0.00
2013-2-7,41,32,25,27,21,15,91,67,41,0.00,40.00,10,5,18,0.00
2013-2-8,39,28,19,20,16,9,92,64,29,0.00,40.00,11,6,24,0.00
2013-2-9,43,28,14,25,18,11,87,67,40,0.00,40.00,8,4,12,0.00
2013-2-10,46,34,23,24,20,16,92,60,35,0.00,40.00,11,5,19,0.01
2013-2-11,49,33,18,29,20,15,87,62,33,0.00,40.00,14,5,22,0.01
2013-2-12,49,33,24,28,25,22,95,74,37,0.00,40.00,7,4,12,0.00
2013-2-13,51,36,25,31,27,23,93,72,41,0.00,40.00,9,4,15,0.00
2013-2-14,52,37,25,32,28,24,97,73,42,0.00,40.00,7,5,11,0.00
2013-2-15,54,39,25,30,26,23,94,65,36,0.00,40.00,7,4,10,0.00
2013-2-16,53,36,24,30,24,16,94,67,38,0.00,40.00,12,6,21,0.00
2013-2-17,43,30,17,22,16,8,92,60,27,0.00,40.00,7,3,11,0.00
2013-2-18,41,30,23,25,19,12,95,65,40,0.00,40.00,15,4,23,0.00
2013-2-19,31,26,21,27,23,18,93,87,80,0.00,40.00,7,4,17,0.03
2013-2-20,40,27,16,23,20,13,95,75,44,0.00,40.00,8,4,17,0.06
2013-2-21,36,28,18,24,20,16,90,74,51,0.00,40.00,10,5,19,0.01
2013-2-22,46,32,25,33,26,22,98,81,50,0.00,40.00,18,7,33,0.12
2013-2-23,34,27,20,25,21,16,94,77,61,0.00,40.00,14,7,23,0.18
2013-2-24,41,26,13,25,18,10,93,73,47,0.00,40.00,7,4,12,0.01
2013-2-25,39,31,26,31,22,16,98,70,41,0.00,40.00,14,8,25,0.02
2013-2-26,42,28,16,21,18,14,91,67,41,0.00,40.00,8,4,13,0.01
2013-2-27,49,32,20,31,21,16,86,65,37,0.00,40.00,8,4,14,0.00
2013-2-28,47,41,36,41,37,31,100,86,75,0.00,40.00,8,5,14,0.04
2013-3-1,53,40,32,40,36,31,100,90,58,0.00,40.00,6,2,11,0.01
2013-3-2,49,38,28,37,31,22,99,79,42,0.00,40.00,5,3,11,0.01
2013-3-3,49,39,30,32,27,16,89,65,41,0.00,40.00,10,4,15,0.01
2013-3-4,50,35,23,29,19,10,74,52,40,0.00,40.00,7,5,12,0.00
2013-3-5,44,38,32,33,29,23,98,73,45,0.00,40.00,11,6,29,0.00
2013-3-6,36,32,27,31,27,20,98,83,67,0.00,40.00,15,8,29,0.12
2013-3-7,43,31,23,26,20,14,95,67,31,0.00,40.00,9,4,15,0.01
2013-3-8,46,32,22,26,22,12,96,71,25,0.00,40.00,9,6,16,0.00
2013-3-9,53,37,22,23,20,16,92,56,26,0.00,40.00,6,4,11,0.00
2013-3-10,55,41,23,29,22,16,82,49,22,0.00,40.00,8,4,11,0.00
2013-3-11,59,42,28,36,30,25,91,65,31,0.00,40.00,7,4,12,0.00
2013-3-12,62,44,28,39,32,24,98,68,36,0.00,40.00,7,4,10,0.00
2013-3-13,60,45,32,35,30,25,79,57,38,0.00,40.00,7,3,10,0.00
2013-3-14,64,44,33,36,31,25,83,62,27,0.00,40.00,10,4,19,0.00
2013-3-15,59,44,31,34,31,28,88,63,33,0.00,40.00,10,5,19,0.00
2013-3-16,51,38,28,34,29,20,98,75,30,0.00,40.00,22,8,34,0.00
2013-3-17,44,35,27,28,22,18,83,61,38,0.00,40.00,22,8,34,0.00
2013-3-18,52,36,22,27,22,19,91,61,29,0.00,40.00,6,4,11,0.00
2013-3-19,54,40,30,42,28,15,94,65,43,0.00,40.00,8,5,19,0.10
2013-3-20,43,40,29,40,33,19,90,78,66,0.00,40.00,20,12,35,0.05
2013-3-21,39,30,25,20,18,15,72,59,43,0.00,40.00,12,7,20,0.01
2013-3-22,37,29,23,18,15,13,70,57,41,0.00,40.00,14,8,25,0.00
2013-3-23,48,30,15,22,16,12,86,59,28,0.00,40.00,8,4,13,0.00
2013-3-24,56,38,25,30,24,19,79,57,32,0.00,40.00,7,5,11,0.00
2013-3-25,59,43,31,37,28,24,83,58,30,0.00,40.00,9,6,18,0.00
2013-3-26,53,42,36,38,36,32,99,79,47,0.00,40.00,11,4,18,0.02
2013-3-27,58,42,33,41,34,31,98,77,36,0.00,40.00,9,5,19,0.02
2013-3-28,56,47,38,43,38,35,91,72,49,0.00,40.00,10,5,16,0.01
2013-3-29,63,47,34,40,35,31,98,69,31,0.00,40.00,7,5,14,0.01
2013-3-30,71,53,33,39,34,29,94,54,23,0.00,40.00,9,5,14,0.00
2013-3-31,55,47,41,44,37,29,97,70,44,0.00,40.00,13,6,21,0.22
2013-4-1,48,43,38,41,39,37,99,88,71,0.00,40.00,6,4,12,0.77
2013-4-2,56,42,31,42,38,31,100,88,59,0.00,40.00,8,4,13,0.01
2013-4-3,60,43,30,44,38,30,100,84,48,0.00,40.00,7,4,11,0.01
2013-4-4,56,48,43,43,39,34,85,69,54,0.00,40.00,16,8,32,0.03
2013-4-5,52,43,38,38,36,33,96,78,51,0.00,40.00,13,9,32,0.07
2013-4-6,49,41,36,38,36,33,96,83,57,0.00,40.00,17,9,30,0.21
2013-4-7,42,38,30,37,33,25,96,83,58,0.00,40.00,19,11,36,0.25
2013-4-8,44,35,26,28,24,19,92,65,51,0.00,40.00,19,11,31,0.03
2013-4-9,59,41,25,36,28,22,91,65,27,0.00,40.00,15,6,24,0.03
2013-4-10,56,45,34,44,37,29,96,76,60,0.00,40.00,15,7,27,0.00
2013-4-11,57,42,25,33,26,16,95,60,21,0.00,40.00,10,5,19,0.00
2013-4-12,62,45,27,36,27,15,93,57,19,0.00,40.00,15,8,25,0.00
2013-4-13,44,40,30,37,24,19,77,54,38,0.00,40.00,16,11,33,0.00
2013-4-14,42,32,21,23,19,15,88,62,36,0.00,40.00,12,6,21,0.00
2013-4-15,37,31,26,29,24,19,93,76,48,0.00,40.00,12,6,23,0.01
2013-4-16,41,32,25,34,24,20,84,73,55,0.00,40.00,17,6,29,0.07
2013-4-17,51,36,24,24,21,12,91,58,22,0.00,40.00,11,7,20,0.01
2013-4-18,60,43,27,38,29,22,82,60,36,0.00,40.00,10,5,18,0.00
2013-4-19,54,45,38,39,36,30,91,70,46,0.00,40.00,19,10,36,0.00
2013-4-20,61,44,27,36,30,19,97,63,25,0.00,40.00,14,6,21,0.00
2013-4-21,61,46,30,38,33,28,96,65,32,0.00,40.00,16,8,29,0.00
2013-4-22,58,45,31,37,24,9,96,53,15,0.00,40.00,10,7,21,0.00
2013-4-23,65,46,25,18,14,4,67,33,9,0.00,40.00,11,7,26,0.00
2013-4-24,68,49,30,18,15,5,51,28,8,0.00,40.00,8,6,20,0.00
2013-4-25,72,51,29,40,25,16,63,39,14,0.00,40.00,14,7,25,0.00
2013-4-26,75,56,34,40,32,25,89,46,17,0.00,40.00,9,6,19,0.00
2013-4-27,73,56,36,37,30,23,80,43,16,0.00,40.00,15,7,22,0.00
2013-4-28,65,54,42,33,29,21,59,38,27,0.00,40.00,14,6,21,0.00
2013-4-29,58,48,39,42,35,27,81,61,33,0.00,40.00,14,8,23,0.00
2013-4-30,57,41,27,29,17,-3,86,47,9,0.00,40.00,15,6,27,0.00
2013-5-1,65,45,26,20,15,9,71,37,11,0.00,40.00,8,6,18,0.00
2013-5-2,72,53,33,30,16,10,41,25,11,0.00,40.00,9,6,17,0.00
2013-5-3,75,58,42,27,22,11,47,28,10,0.00,40.00,11,7,23,0.00
2013-5-4,68,55,39,32,26,20,55,35,16,0.00,40.00,12,8,29,0.00
2013-5-5,68,55,42,44,34,30,62,48,27,0.00,40.00,12,6,20,0.01
2013-5-6,70,53,42,48,40,34,98,64,29,0.00,40.00,11,5,24,0.37
2013-5-7,64,50,42,51,47,42,100,89,54,0.00,40.00,10,4,20,0.20
2013-5-8,67,52,41,50,47,41,100,84,47,0.00,40.00,13,4,22,0.39
2013-5-9,74,57,42,53,45,39,100,69,30,0.00,40.00,12,5,20,0.01
2013-5-10,80,64,46,49,44,38,88,52,24,0.00,40.00,9,6,18,0.00
2013-5-11,82,65,49,53,48,39,91,58,22,0.00,40.00,9,5,16,0.00
2013-5-12,81,65,49,53,47,37,90,57,27,0.00,40.00,13,6,21,0.00
2013-5-13,69,57,43,45,40,31,88,55,36,0.00,40.00,23,9,35,0.00
2013-5-14,69,54,37,40,36,31,96,59,26,0.00,40.00,12,6,19,0.00
2013-5-15,65,50,39,42,38,36,95,67,35,0.00,40.00,16,7,25,0.00
2013-5-16,56,42,39,44,19,-100,96,81,47,0.00,40.00,12,5,22,0.28
2013-5-17,57,45,35,38,30,-100,97,67,41,0.00,40.00,13,6,24,0.12
2013-5-18,56,43,31,40,35,30,96,73,48,0.00,40.00,13,6,21,0.00
2013-5-19,66,48,30,38,34,29,97,62,33,0.00,40.00,12,6,18,0.00
2013-5-20,72,55,35,38,34,25,94,52,21,0.00,40.00,11,6,17,0.00
2013-5-21,54,43,28,42,32,24,95,68,36,0.00,40.00,21,10,39,0.03
2013-5-22,44,34,27,30,25,19,93,69,50,0.00,40.00,12,8,21,0.03
2013-5-23,51,40,30,32,28,25,92,64,36,0.00,40.00,14,6,22,0.01
2013-5-24,58,46,32,34,31,27,86,59,31,0.00,40.00,12,7,22,0.00
2013-5-25,63,48,29,41,32,26,96,59,30,0.00,40.00,12,6,21,0.01
2013-5-26,58,49,43,40,36,32,87,62,37,0.00,40.00,13,8,25,0.02
2013-5-27,56,46,42,47,42,36,95,86,73,0.00,40.00,14,6,26,0.58
2013-5-28,61,50,41,41,38,34,90,66,36,0.00,40.00,12,8,23,0.37
2013-5-29,56,49,43,42,36,32,89,64,42,0.00,40.00,24,12,39,0.06
2013-5-30,63,50,32,36,32,28,90,54,30,0.00,40.00,13,7,24,0.01
2013-5-31,72,52,32,37,32,1,96,54,7,0.00,40.00,12,6,18,0.00
2013-6-1,74,60,43,41,39,34,87,50,26,0.00,40.00,13,6,21,0.00
2013-6-2,75,60,41,45,36,28,96,49,18,0.00,40.00,9,6,19,0.00
2013-6-3,79,60,40,44,37,30,89,48,17,0.00,40.00,10,6,15,0.00
2013-6-4,83,66,47,47,41,34,77,44,18,0.00,40.00,8,6,15,0.00
2013-6-5,85,68,49,47,41,35,62,39,20,0.00,40.00,10,6,17,0.00
2013-6-6,85,67,49,53,46,38,85,52,20,0.00,40.00,11,6,18,0.00
2013-6-7,84,68,51,53,49,33,95,55,18,0.00,40.00,12,7,20,0.00
2013-6-8,88,69,50,51,42,31,82,44,16,0.00,40.00,11,6,17,0.00
2013-6-9,86,71,53,48,44,37,70,42,19,0.00,40.00,12,7,20,0.00
2013-6-10,78,65,53,45,36,28,69,38,20,0.00,40.00,15,8,28,0.00
2013-6-11,65,55,41,41,35,27,82,50,24,0.00,40.00,14,7,23,0.00
2013-6-12,63,50,32,34,32,30,94,56,29,0.00,40.00,13,7,22,0.00
2013-6-13,58,46,31,35,33,30,95,63,37,0.00,40.00,13,6,24,0.00
2013-6-14,71,52,31,36,30,25,96,52,18,0.00,40.00,9,5,16,0.00
2013-6-15,78,60,35,43,33,26,74,41,17,0.00,40.00,12,6,21,0.00
2013-6-16,76,62,45,48,42,34,90,52,22,0.00,40.00,14,7,24,0.00
2013-6-17,73,57,42,46,42,38,93,60,28,0.00,40.00,14,7,24,0.00
2013-6-18,62,52,43,42,37,28,86,60,29,0.00,40.00,16,7,25,0.00
2013-6-19,52,44,37,41,36,34,92,74,56,0.00,40.00,11,8,24,0.05
2013-6-20,58,42,31,36,34,31,98,76,41,0.00,40.00,8,4,14,0.04
2013-6-22,74,65,48,43,39,35,72,41,27,0.00,40.00,11,6,19,0.00
2013-6-23,65,56,50,54,48,41,95,77,53,0.00,40.00,18,4,36,0.21
2013-6-24,53,49,46,50,46,43,96,89,77,0.00,40.00,7,4,16,0.39
2013-6-25,58,53,48,51,47,44,91,80,68,0.00,40.00,12,6,32,0.09
2013-6-26,71,60,49,55,52,46,97,75,52,0.00,40.00,10,6,21,0.02
2013-6-27,84,66,49,54,51,47,96,64,30,0.00,40.00,8,4,14,0.01
2013-6-28,89,72,54,56,52,47,91,55,24,0.00,40.00,13,6,19,0.00
2013-6-29,86,72,56,57,52,44,94,55,24,0.00,40.00,12,5,20,0.00
2013-6-30,93,74,56,59,52,42,84,52,17,0.00,40.00,11,6,17,0.00
2013-7-1,92,77,61,63,56,49,85,51,26,0.00,40.00,10,5,17,0.00
2013-7-2,96,78,60,63,56,47,90,53,19,0.00,40.00,13,6,20,0.00
2013-7-3,92,77,62,61,54,46,79,49,21,0.00,40.00,13,6,22,0.00
2013-7-4,83,71,55,52,48,43,82,49,25,0.00,40.00,13,6,21,0.00
2013-7-5,83,66,48,47,40,27,72,42,15,0.00,40.00,12,7,18,0.00
2013-7-6,85,66,48,47,42,39,75,47,21,0.00,40.00,12,6,21,0.00
2013-7-7,85,69,50,51,46,42,80,46,28,0.00,40.00,11,6,18,0.00
2013-7-8,87,68,52,50,46,43,84,50,27,0.00,40.00,8,5,14,0.00
2013-7-9,89,73,54,47,42,28,74,39,11,0.00,40.00,9,6,18,0.00
2013-7-10,88,72,59,52,41,-100,63,38,14,0.00,40.00,12,6,18,0.00
2013-7-11,81,67,51,49,43,37,76,45,22,0.00,40.00,15,6,24,0.00
2013-7-12,77,61,46,45,38,33,77,47,22,0.00,40.00,14,6,26,0.00
2013-7-13,82,64,46,44,40,33,69,44,22,0.00,40.00,11,6,16,0.00
2013-7-14,87,70,52,46,35,27,45,30,13,0.00,40.00,9,6,16,0.00
2013-7-15,88,70,51,46,41,33,70,41,14,0.00,40.00,8,6,14,0.00
2013-7-16,85,78,64,49,38,26,58,29,12,0.00,40.00,10,8,23,0.00
2013-7-17,84,68,47,50,43,36,87,46,18,0.00,40.00,8,4,16,0.00
2013-7-18,89,71,51,50,44,32,76,43,13,0.00,40.00,10,6,17,0.00
2013-7-19,93,74,56,51,43,31,57,37,11,0.00,40.00,13,6,18,0.00
2013-7-20,95,72,55,49,41,-100,64,39,13,0.00,40.00,11,6,18,0.00
2013-7-21,96,74,52,45,40,29,64,34,10,0.00,40.00,13,6,19,0.00
2013-7-22,94,73,54,47,40,37,60,34,14,0.00,40.00,11,7,19,0.00
2013-7-23,93,71,54,51,44,38,68,41,15,0.00,40.00,14,6,24,0.00
2013-7-24,90,74,59,49,44,41,54,37,18,0.00,40.00,12,5,23,0.00
2013-7-25,94,78,61,50,45,40,56,33,16,0.00,40.00,9,6,17,0.00
2013-7-26,92,76,60,52,47,44,57,37,22,0.00,40.00,13,6,23,0.00
2013-7-27,87,71,54,50,42,30,77,42,14,0.00,40.00,11,7,20,0.00
2013-7-28,84,64,45,42,35,22,67,39,11,0.00,40.00,13,7,20,0.00
2013-7-29,84,63,45,43,38,33,71,44,20,0.00,40.00,13,7,24,0.00
2013-7-30,83,65,47,42,37,32,60,38,17,0.00,40.00,11,5,20,0.00
2013-7-31,83,66,53,52,44,38,97,47,20,0.00,40.00,9,5,17,0.19
2013-8-1,73,59,46,51,42,30,100,62,22,0.00,40.00,16,8,25,0.09
2013-8-2,76,55,36,44,38,28,97,62,17,0.00,40.00,10,6,18,0.01
2013-8-3,82,64,44,44,39,24,87,47,12,0.00,40.00,11,6,17,0.00
2013-8-4,87,68,51,45,42,30,73,43,13,0.00,40.00,10,5,18,0.00
2013-8-5,86,70,53,47,44,41,71,43,21,0.00,40.00,11,6,17,0.00
2013-8-6,89,70,50,50,45,34,78,45,14,0.00,40.00,8,6,15,0.00
2013-8-7,71,63,57,55,47,44,78,56,41,0.00,40.00,10,5,32,0.14
2013-8-8,76,61,46,46,42,38,87,56,27,0.00,40.00,8,5,16,0.05
2013-8-9,73,60,45,49,41,36,84,52,28,0.00,40.00,8,4,16,0.00
2013-8-10,72,60,45,50,44,36,86,59,28,0.00,40.00,11,5,18,0.00
2013-8-11,78,62,44,47,43,33,91,54,20,0.00,40.00,10,6,18,0.00
2013-8-12,81,64,47,49,45,40,92,53,23,0.00,40.00,12,6,21,0.00
2013-8-13,86,66,47,48,42,-100,86,49,16,0.00,40.00,10,6,18,0.00
2013-8-14,87,67,50,52,43,-100,87,48,16,0.00,40.00,12,5,17,0.00
2013-8-15,87,61,47,47,28,-100,71,41,16,0.00,40.00,13,5,20,0.00
2013-8-16,85,66,51,52,45,-100,81,53,24,0.00,40.00,12,6,18,0.00
2013-8-17,85,69,53,57,50,48,91,56,29,0.00,40.00,12,6,23,0.00
2013-8-18,90,70,49,52,46,37,92,51,16,0.00,40.00,12,6,18,0.00
2013-8-21,89,73,57,49,35,25,43,26,15,0.00,40.00,8,5,16,0.00
2013-8-22,75,60,48,52,48,45,98,69,41,0.00,40.00,9,4,47,0.10
2013-8-23,78,59,41,54,46,41,100,68,28,0.00,40.00,10,5,16,0.01
2013-8-24,78,60,47,52,48,40,97,68,26,0.00,40.00,9,4,18,0.03
2013-8-25,71,56,51,52,50,46,98,83,42,0.00,40.00,20,5,35,0.29
2013-8-26,73,58,46,54,47,39,100,72,30,0.00,40.00,13,6,22,0.12
2013-8-27,70,50,41,46,43,40,96,79,42,0.00,40.00,7,5,11,0.01
2013-8-28,82,73,60,49,41,34,66,35,20,0.00,40.00,10,7,19,0.00
2013-8-29,78,66,53,51,45,41,77,50,28,0.00,40.00,14,6,26,0.00
2013-8-30,83,65,45,52,45,32,97,57,16,0.00,40.00,9,5,15,0.00
2013-8-31,87,68,50,53,45,41,86,51,21,0.00,40.00,9,6,16,0.00
2013-9-1,88,67,52,50,40,25,73,43,11,0.00,40.00,13,5,26,0.00
2013-9-2,80,64,48,48,42,33,78,51,20,0.00,40.00,10,6,20,0.00
2013-9-3,79,61,44,48,42,32,97,58,19,0.00,40.00,11,6,20,0.00
2013-9-4,80,60,42,49,43,35,94,59,20,0.00,40.00,12,6,21,0.00
2013-9-5,68,54,45,52,45,40,98,75,44,0.00,40.00,14,6,32,0.10
2013-9-6,73,55,37,47,42,36,98,67,34,0.00,40.00,9,4,16,0.01
2013-9-7,82,62,45,50,44,31,95,58,16,0.00,40.00,9,6,15,0.00
2013-9-17,55,50,45,50,43,36,98,77,62,0.00,40.00,17,6,28,0.26
2013-9-18,51,43,36,39,36,33,98,79,54,0.00,40.00,5,2,7,0.26
2013-9-19,78,54,33,35,31,21,89,50,12,0.00,40.00,8,6,13,0.00
2013-9-20,75,51,36,46,33,25,99,55,18,0.00,40.00,18,7,34,0.22
2013-9-21,54,46,41,47,43,38,100,89,67,0.00,40.00,9,4,16,0.14
2013-9-22,54,47,40,46,41,37,94,81,64,0.00,40.00,17,8,29,0.09
2013-9-23,66,54,46,46,44,41,89,71,43,0.00,40.00,15,9,24,0.00
2013-9-24,49,44,38,41,39,36,94,81,63,0.00,40.00,12,6,22,0.26
2013-9-25,49,40,33,36,32,30,98,77,48,0.00,40.00,12,8,22,0.06
2013-9-26,52,39,27,32,30,26,98,73,41,0.00,40.00,13,5,22,0.01
2013-9-27,61,43,27,35,29,21,97,63,27,0.00,40.00,11,6,17,0.00
2013-9-28,60,54,46,41,36,31,81,53,42,0.00,40.00,16,9,33,0.01
2013-9-29,52,49,45,49,46,42,99,91,68,0.00,40.00,20,12,36,1.32
2013-9-30,52,46,41,48,38,31,97,74,47,0.00,40.00,17,12,34,0.35
2013-10-3,54,40,28,32,27,23,96,65,31,0.00,40.00,9,5,23,0.00
2013-10-4,62,43,29,30,27,23,89,57,24,0.00,40.00,7,5,14,0.00
2013-10-5,69,46,26,29,25,22,84,48,20,0.00,40.00,8,6,12,0.00
2013-10-6,73,50,30,33,27,23,83,48,16,0.00,40.00,10,6,18,0.00
2013-10-7,57,43,33,35,30,26,85,61,31,0.00,40.00,15,6,25,0.00
2013-10-8,53,38,27,34,30,26,97,76,42,0.00,40.00,13,5,22,0.00
2013-10-9,51,39,30,32,29,26,96,69,39,0.00,40.00,10,7,24,0.00
2013-10-17,67,46,29,35,29,23,85,54,27,0.00,40.00,8,5,15,0.00
2013-10-18,67,48,30,32,29,26,87,53,24,0.00,40.00,7,5,13,0.00
2013-10-19,70,47,28,33,29,25,88,54,23,0.00,40.00,7,5,12,0.00
2013-10-20,72,48,30,32,28,21,84,53,15,0.00,40.00,9,6,15,0.00
2013-10-21,72,52,36,35,31,27,73,47,25,0.00,40.00,7,5,12,0.00
2013-10-22,71,50,34,34,30,26,73,49,24,0.00,40.00,8,5,13,0.00
2013-10-23,72,48,31,35,30,22,88,55,18,0.00,40.00,7,5,13,0.00
2013-10-24,71,51,35,35,30,25,81,50,22,0.00,40.00,8,4,14,0.00
2013-10-25,69,47,30,34,30,26,85,55,25,0.00,40.00,8,5,10,0.00
2013-10-26,70,46,29,35,28,23,89,56,20,0.00,40.00,10,5,14,0.00
2013-10-27,55,39,31,37,28,23,92,66,31,0.00,40.00,17,8,38,0.00
2013-10-28,36,33,30,34,26,-100,97,81,66,0.00,40.00,12,7,25,0.06
2013-10-29,50,34,23,32,23,18,89,66,40,0.00,40.00,6,4,13,0.01
2013-10-30,55,37,22,34,29,21,96,76,45,0.00,40.00,6,4,11,0.00
2013-10-31,59,42,28,40,34,27,97,74,49,0.00,40.00,5,4,12,0.00
2013-11-1,60,41,27,39,33,26,99,77,40,0.00,40.00,7,4,11,0.00
2013-11-2,46,38,30,38,32,23,96,81,52,0.00,40.00,16,8,29,0.04
2013-11-3,39,32,27,30,25,23,87,75,56,0.00,40.00,12,6,20,0.01
2013-11-4,47,34,24,29,25,22,94,73,49,0.00,40.00,9,4,16,0.00
2013-11-5,44,37,29,42,35,26,99,91,81,0.00,40.00,6,3,10,0.06
2013-11-6,56,45,38,44,42,38,99,91,63,0.00,40.00,5,2,10,0.01
2013-11-7,52,45,39,42,39,33,99,79,58,0.00,40.00,19,10,34,0.02
2013-11-8,51,36,28,34,24,13,96,67,22,0.00,40.00,6,4,11,0.01
2013-11-9,58,38,23,32,25,18,83,61,36,0.00,40.00,6,3,9,0.00
2013-11-10,59,43,31,36,32,27,93,68,39,0.00,40.00,5,3,7,0.00
2013-11-11,60,41,30,32,25,20,82,56,21,0.00,40.00,7,4,10,0.00
2013-11-12,54,49,45,41,32,21,78,54,33,0.00,40.00,5,2,8,0.00
2013-11-13,59,44,32,42,31,14,99,68,17,0.00,40.00,7,5,13,0.00
2013-11-14,52,35,23,29,23,18,80,63,35,0.00,40.00,11,5,19,0.00
2013-11-15,45,32,22,27,24,20,94,73,49,0.00,40.00,12,5,25,0.00
2013-11-16,43,37,33,31,29,25,91,72,58,0.00,40.00,23,11,39,0.00
2013-11-17,49,36,26,31,27,24,93,72,48,0.00,40.00,8,4,15,0.00
2013-11-18,44,37,29,37,30,24,94,76,58,0.00,40.00,10,5,20,0.07
2013-11-19,43,41,38,41,38,37,96,92,82,0.00,40.00,10,7,20,0.39
2013-11-20,39,34,22,38,28,11,99,82,55,0.00,40.00,12,6,23,0.12
2013-11-21,42,26,12,7,-1,-7,55,32,15,0.00,40.00,11,7,22,0.01
2013-11-22,49,30,15,7,4,1,54,35,17,0.00,40.00,10,7,17,0.00
2013-11-23,54,36,25,14,10,6,49,35,20,0.00,40.00,9,6,17,0.00
2013-11-24,51,32,18,18,13,11,75,49,22,0.00,40.00,8,4,12,0.00
2013-11-25,54,32,19,19,13,11,74,49,20,0.00,40.00,8,5,11,0.00
2013-11-26,49,34,23,21,17,13,68,51,32,0.00,40.00,6,4,10,0.00
2013-11-27,50,34,26,25,21,19,76,62,36,0.00,40.00,7,4,11,0.00
2013-11-28,58,36,26,28,23,21,83,62,30,0.00,40.00,8,5,13,0.00
2013-11-29,53,37,24,27,24,20,84,60,35,0.00,40.00,8,5,12,0.00
2013-11-30,55,41,29,36,32,25,92,72,48,0.00,40.00,5,2,8,0.00
2013-12-1,50,43,34,41,34,27,94,72,44,0.00,40.00,14,8,34,0.00
2013-12-2,46,38,26,39,31,17,96,76,58,0.00,40.00,25,8,39,0.14
2013-12-3,28,21,9,16,11,2,87,67,52,0.00,40.00,11,6,22,0.05
2013-12-12,31,20,10,27,17,6,94,87,77,0.00,40.00,4,2,10,0.04
2013-12-13,43,30,23,32,27,22,98,89,65,0.00,40.00,6,2,10,0.00
2013-12-14,43,25,15,29,22,12,97,87,57,0.00,40.00,5,3,7,0.00
2013-12-15,39,27,18,26,22,16,97,83,57,0.00,40.00,5,3,7,0.01
2013-12-16,46,29,17,27,21,15,93,75,47,0.00,40.00,7,4,10,0.01
2013-12-17,46,30,20,25,21,17,90,71,43,0.00,40.00,6,4,9,0.00
2013-12-18,36,29,19,27,22,16,92,77,62,0.00,40.00,7,4,18,0.00
2013-12-19,35,26,19,26,12,3,90,59,30,0.00,40.00,9,6,24,0.00
2013-12-20,40,27,13,36,17,3,87,67,47,0.00,40.00,8,4,16,0.00
2013-12-21,49,39,29,35,31,25,89,75,51,0.00,40.00,11,5,17,0.00
2013-12-22,51,37,29,36,30,25,94,78,48,0.00,40.00,10,4,15,0.00
2013-12-23,44,36,27,39,32,26,96,84,65,0.00,40.00,7,3,13,0.00
2013-12-24,47,33,22,32,28,19,96,82,53,0.00,40.00,7,4,11,0.00
2013-12-25,48,28,15,28,21,12,93,76,43,0.00,40.00,7,4,9,0.01
2013-12-26,49,32,20,26,21,16,92,67,37,0.00,40.00,6,4,8,0.01
2013-12-28,47,31,21,24,16,9,86,58,24,0.00,40.00,8,4,12,0.00
2013-12-29,45,28,17,19,12,8,69,52,32,0.00,40.00,9,4,14,0.00
2013-12-30,39,29,21,19,16,12,72,57,43,0.00,40.00,6,3,9,0.00
2013-12-31,52,35,27,22,18,15,68,52,31,0.00,40.00,7,3,10,0.00
2014-1-1,49,33,22,26,21,17,81,62,37,0.00,40.00,7,4,12,0.00
2014-1-2,49,34,24,28,24,21,91,69,43,0.00,40.00,8,4,11,0.00